Tracking 34305 objects as of 6-Jun-2026
HD Live streaming from Space Station
objects crossing your sky now

QIANFAN-131

Track QIANFAN-131 now!
10-day predictions
QIANFAN-131 is classified as:


NORAD ID: 69077
Int'l Code: 2026-104E
Perigee: 827.8 km
Apogee: 833.8 km
Inclination: 89.0 °
Period: 101.4 minutes
Semi major axis: 7201 km
RCS: Unknown
Launch date: May 12, 2026
Source: People's Republic of China (PRC)
Launch site: Taiyaun Space Center, China (TSC)
Your satellite tracking list
Your tracking list is empty




NASA's NSSDC Master Catalog

Two Line Element Set (TLE):
1 69077U 26104E   26156.88027937  .00000111  00000-0  45041-4 0  9997
2 69077  88.9862 342.8993 0004187 141.0068 219.1425 14.20505685  3485
Source of the keplerian elements: AFSPC